This demonstration page uses our WeatherBlox Daily Observations layout. Learn more.

41.55636, -103.73856

Hourly Observations for May 21, 2016

Temp ( °F °C ) Dew Point ( °F °C ) Humidity (%) Winds ( mph kmh ) Pressure ( in mb ) Visibility ( mi km ) Precip ( " mm )
12:58 am 00:58 Mostly Cloudy 56 13.1 53 11.7 91 91 SSE 21 33 29.81 1009 10 16.0934 N/A
1:58 am 01:58 Cloudy 55 12.9 53 11.9 94 94 S 12 19 29.82 1010 10 16.0934 N/A
2:58 am 02:58 Cloudy 56 13.1 54 12.2 94 94 S 13 20 29.8 1009 10 16.0934 N/A
3:58 am 03:58 Mostly Cloudy 56 13.2 54 12.3 94 94 SSE 21 33 29.79 1009 10 16.0934 N/A
4:58 am 04:58 Mostly Cloudy 56 13.1 54 12.2 94 94 SSE 18 30 29.79 1009 10 16.0934 N/A
5:58 am 05:58 Cloudy 55 12.9 53 11.9 94 94 SSE 12 19 29.82 1010 10 16.0934 N/A
6:58 am 06:58 Mostly Cloudy 56 13.2 53 11.8 91 91 SSE 17 28 29.84 1011 10 16.0934 N/A
7:58 am 07:58 Cloudy 56 13.5 53 11.5 88 88 SSE 13 20 29.86 1011 10 16.0934 N/A
8:58 am 08:58 Mostly Cloudy 58 14.4 53 11.6 83 83 S 15 24 29.88 1012 10 16.0934 N/A
9:58 am 09:58 Mostly Cloudy 60 15.4 53 11.5 78 78 SSE 10 17 29.87 1012 10 16.0934 N/A
10:58 am 10:58 Mostly Sunny 65 18.5 55 12.7 69 69 SSE 17 28 29.83 1010 10 16.0934 N/A
11:58 am 11:58 Sunny 69 20.3 56 13.2 64 64 SE 18 30 29.82 1010 10 16.0934 N/A
12:58 pm 12:58 Sunny 71 21.6 55 13 58 58 SSE 24 39 29.78 1008 10 16.0934 N/A
1:58 pm 13:58 Mostly Sunny 71 21.9 56 13.2 58 58 SE 20 31 29.78 1008 10 16.0934 N/A
2:58 pm 14:58 Mostly Sunny 70 21 56 13.5 62 62 SE 28 44 29.77 1008 10 16.0934 N/A
3:58 pm 15:58 Partly Cloudy 66 19.1 57 13.8 72 72 ESE 28 44 29.76 1008 10 16.0934 N/A
4:58 pm 16:58 Cloudy 60 15.4 56 13.6 89 89 SE 29 46 29.77 1008 10 16.0934 N/A
5:58 pm 17:58 Cloudy 60 15.6 57 13.8 89 89 SE 25 41 29.78 1008 10 16.0934 N/A
6:58 pm 18:58 Mostly Cloudy 61 15.9 57 13.9 88 88 SE 28 44 29.75 1007 10 16.0934 N/A
7:58 pm 19:58 Cloudy with Mist and Fog 60 15.3 58 14.3 94 94 SE 29 46 29.73 1007 4 6.43736 N/A
8:58 pm 20:58 Mostly Cloudy with Light Rain 58 14.4 57 13.9 97 97 SE 28 44 29.73 1007 3 4.82802 N/A
9:58 pm 21:58 Mostly Cloudy 59 15.1 58 14.6 97 97 SE 30 48 29.72 1007 10 16.0934 N/A
10:58 pm 22:58 Mostly Cloudy 60 15.4 57 13.9 91 91 SE 22 35 29.69 1005 10 16.0934 N/A
11:58 pm 23:58 Clear 60 15.4 56 13.3 87 87 SSE 23 37 29.65 1004 10 16.0934 N/A

Powered by AerisWeather